| time (UTC) | temp C | wind direction | speed KPH | gust KPH | rain 1hr cm | rain 24hr cm | rain mn cm | humidity % | barometer mb |
| 20260906201334 | 26 | 337 | 6.4 | 11.3 | 0.00 | 0.03 | 0.03 | 77 | 1012.1 |
| 20260906200832 | 26 | 273 | 6.4 | 12.9 | 0.00 | 0.03 | 0.03 | 77 | 1012.1 |
| 20260906200334 | 26 | 264 | 8.0 | 14.5 | 0.00 | 0.03 | 0.03 | 77 | 1012.1 |
| 20260906195831 | 26 | 339 | 4.8 | 14.5 | 0.00 | 0.03 | 0.03 | 79 | 1012.1 |
| 20260906195333 | 26 | 220 | 4.8 | 12.9 | 0.00 | 0.03 | 0.03 | 78 | 1012.5 |
| 20260906194832 | 26 | 199 | 4.8 | 12.9 | 0.00 | 0.05 | 0.03 | 80 | 1012.1 |
| 20260906193831 | 26 | 277 | 4.8 | 12.9 | 0.00 | 0.08 | 0.03 | 82 | 1012.5 |
| 20260906193331 | 25 | 283 | 3.2 | 12.9 | 0.00 | 0.10 | 0.03 | 81 | 1012.1 |
| 20260906192329 | 26 | 266 | 0.0 | 9.7 | 0.00 | 0.10 | 0.03 | 80 | 1012.1 |
| 20260906191328 | 25 | 300 | 8.0 | 11.3 | 0.00 | 0.10 | 0.03 | 83 | 1012.5 |
| 20260906190828 | 25 | 297 | 4.8 | 11.3 | 0.00 | 0.10 | 0.03 | 83 | 1012.8 |
| 20260906190330 | 25 | 265 | 3.2 | 11.3 | 0.00 | 0.10 | 0.03 | 82 | 1012.8 |
| 20260906185828 | 25 | 265 | 6.4 | 11.3 | 0.00 | 0.10 | 0.03 | 82 | 1012.8 |
| 20260906184828 | 26 | 86 | 0.0 | 9.7 | 0.00 | 0.10 | 0.03 | 81 | 1012.8 |
| 20260906184328 | 26 | 285 | 0.0 | 8.0 | 0.00 | 0.10 | 0.03 | 84 | 1012.8 |
| 20260906183828 | 25 | 330 | 4.8 | 8.0 | 0.00 | 0.10 | 0.03 | 83 | 1012.8 |
| 20260906182827 | 25 | 273 | 6.4 | 11.3 | 0.00 | 0.10 | 0.03 | 85 | 1012.8 |
| 20260906182327 | 25 | 257 | 3.2 | 11.3 | 0.00 | 0.10 | 0.03 | 85 | 1012.8 |
| 20260906181826 | 25 | 261 | 4.8 | 16.1 | 0.00 | 0.10 | 0.03 | 85 | 1013.2 |
| 20260906181326 | 25 | 334 | 3.2 | 16.1 | 0.00 | 0.10 | 0.03 | 85 | 1012.8 |
| 20260906180827 | 25 | 304 | 0.0 | 9.7 | 0.00 | 0.10 | 0.03 | 86 | 1013.2 |
| 20260906180325 | 25 | 342 | 6.4 | 9.7 | 0.00 | 0.10 | 0.03 | 86 | 1013.2 |
| 20260906175825 | 25 | 288 | 0.0 | 9.7 | 0.00 | 0.10 | 0.03 | 85 | 1012.8 |
| 20260906175326 | 25 | 312 | 3.2 | 11.3 | 0.00 | 0.10 | 0.03 | 85 | 1013.2 |
| 20260906174824 | 24 | 336 | 3.2 | 11.3 | 0.00 | 0.10 | 0.03 | 85 | 1013.2 |
| 20260906174324 | 24 | 117 | 1.6 | 9.7 | 0.00 | 0.10 | 0.03 | 85 | 1013.5 |
| 20260906173823 | 25 | 356 | 0.0 | 14.5 | 0.00 | 0.10 | 0.03 | 86 | 1013.5 |
| 20260906173325 | 24 | 279 | 0.0 | 14.5 | 0.00 | 0.10 | 0.03 | 87 | 1013.5 |
| 20260906172823 | 23 | 315 | 3.2 | 12.9 | 0.00 | 0.10 | 0.03 | 87 | 1013.9 |
| 20260906172325 | 23 | 285 | 4.8 | 11.3 | 0.00 | 0.10 | 0.03 | 87 | 1013.9 |
| 20260906171823 | 23 | 270 | 0.0 | 12.9 | 0.00 | 0.10 | 0.03 | 89 | 1014.3 |
| 20260906171323 | 23 | 287 | 4.8 | 8.0 | 0.00 | 0.10 | 0.03 | 87 | 1013.9 |
| 20260906170822 | 23 | 260 | 3.2 | 11.3 | 0.00 | 0.10 | 0.03 | 90 | 1014.3 |
| 20260906170323 | 23 | 257 | 3.2 | 11.3 | 0.00 | 0.10 | 0.03 | 90 | 1014.3 |
| 20260906164821 | 23 | 290 | 6.4 | 9.7 | 0.00 | 0.10 | 0.03 | 90 | 1014.3 |
| 20260906164320 | 23 | 297 | 3.2 | 9.7 | 0.00 | 0.10 | 0.03 | 90 | 1014.3 |
| 20260906163820 | 22 | 270 | 3.2 | 9.7 | 0.00 | 0.10 | 0.03 | 90 | 1014.3 |
| 20260906163322 | 22 | 263 | 3.2 | 9.7 | 0.00 | 0.10 | 0.03 | 90 | 1014.3 |
| 20260906162320 | 22 | 23 | 1.6 | 9.7 | 0.00 | 0.10 | 0.03 | 91 | 1014.6 |
| 20260906161819 | 22 | 276 | 8.0 | 9.7 | 0.00 | 0.10 | 0.03 | 91 | 1014.3 |
| 20260906161320 | 22 | 341 | 6.4 | 11.3 | 0.00 | 0.10 | 0.03 | 92 | 1014.6 |
| 20260906160318 | 21 | 294 | 4.8 | 11.3 | 0.00 | 0.10 | 0.03 | 92 | 1014.3 |
| 20260906155817 | 22 | 5 | 0.0 | 11.3 | 0.00 | 0.10 | 0.03 | 93 | 1014.3 |
| 20260906155319 | 22 | 270 | 0.0 | 9.7 | 0.00 | 0.10 | 0.03 | 93 | 1014.3 |
| 20260906154817 | 21 | 285 | 0.0 | 9.7 | 0.00 | 0.10 | 0.03 | 94 | 1014.6 |
| 20260906154318 | 21 | 352 | 6.4 | 9.7 | 0.00 | 0.10 | 0.03 | 93 | 1014.3 |
| 20260906153816 | 21 | 298 | 4.8 | 8.0 | 0.00 | 0.10 | 0.03 | 93 | 1014.6 |
| 20260906153317 | 22 | 285 | 3.2 | 9.7 | 0.00 | 0.10 | 0.03 | 92 | 1014.3 |
| 20260906152816 | 22 | 337 | 3.2 | 9.7 | 0.00 | 0.10 | 0.03 | 92 | 1013.9 |
| 20260906151815 | 21 | 240 | 4.8 | 6.4 | 0.00 | 0.10 | 0.03 | 92 | 1014.3 |
| 20260906151316 | 21 | 265 | 6.4 | 8.0 | 0.00 | 0.10 | 0.03 | 93 | 1014.3 |
| 20260906150815 | 21 | 274 | 4.8 | 8.0 | 0.00 | 0.10 | 0.03 | 93 | 1014.3 |
| 20260906150314 | 21 | 337 | 1.6 | 6.4 | 0.00 | 0.10 | 0.03 | 93 | 1014.3 |
| 20260906144816 | 21 | 353 | 1.6 | 6.4 | 0.00 | 0.10 | 0.03 | 95 | 1014.3 |
| 20260906144313 | 21 | 339 | 4.8 | 6.4 | 0.00 | 0.10 | 0.03 | 96 | 1014.3 |
| 20260906143815 | 20 | 311 | 3.2 | 6.4 | 0.00 | 0.10 | 0.03 | 96 | 1014.6 |
| 20260906143312 | 20 | 300 | 4.8 | 6.4 | 0.00 | 0.10 | 0.03 | 97 | 1014.3 |
| 20260906142812 | 20 | 336 | 3.2 | 6.4 | 0.00 | 0.10 | 0.03 | 97 | 1014.3 |
| 20260906142312 | 20 | 286 | 3.2 | 6.4 | 0.00 | 0.10 | 0.03 | 97 | 1014.6 |
| 20260906141811 | 20 | 342 | 3.2 | 9.7 | 0.00 | 0.10 | 0.03 | 98 | 1014.6 |
| 20260906141311 | 20 | 326 | 3.2 | 9.7 | 0.00 | 0.10 | 0.03 | 98 | 1014.3 |
| 20260906140812 | 20 | 306 | 1.6 | 8.0 | 0.00 | 0.10 | 0.03 | 98 | 1014.3 |
| 20260906140310 | 20 | 253 | 6.4 | 6.4 | 0.00 | 0.10 | 0.03 | 98 | 1014.3 |
| 20260906135811 | 20 | 312 | 3.2 | 6.4 | 0.00 | 0.10 | 0.03 | 99 | 1014.3 |
| 20260906135312 | 19 | 288 | 3.2 | 6.4 | 0.00 | 0.10 | 0.03 | 99 | 1014.3 |
| 20260906133302 | 19 | 266 | 3.2 | 3.2 | 0.00 | 0.10 | 0.03 | 99 | 1014.3 |
| 20260906132801 | 19 | 337 | 1.6 | 8.0 | 0.00 | 0.10 | 0.03 | 99 | 1014.6 |
| 20260906132300 | 18 | 243 | 3.2 | 8.0 | 0.00 | 0.10 | 0.03 | 99 | 1014.3 |
| 20260906131801 | 18 | 327 | 0.0 | 6.4 | 0.00 | 0.10 | 0.03 | 99 | 1014.3 |
| 20260906131301 | 18 | 265 | 3.2 | 6.4 | 0.00 | 0.10 | 0.03 | 99 | 1014.3 |
| 20260906130802 | 18 | 279 | 0.0 | 6.4 | 0.00 | 0.10 | 0.03 | 99 | 1014.3 |
| 20260906125803 | 18 | 291 | 6.4 | 8.0 | 0.03 | 0.10 | 0.03 | 99 | 1014.3 |
| 20260906125300 | 18 | 327 | 3.2 | 4.8 | 0.03 | 0.10 | 0.03 | 99 | 1014.3 |
| 20260906124802 | 18 | 0 | 1.6 | 4.8 | 0.03 | 0.10 | 0.03 | 99 | 1014.3 |
| 20260906124302 | 18 | 294 | 1.6 | 4.8 | 0.03 | 0.10 | 0.03 | 99 | 1013.9 |
| 20260906123801 | 18 | 8 | 0.0 | 6.4 | 0.03 | 0.10 | 0.03 | 99 | 1014.3 |
| 20260906123302 | 18 | 352 | 0.0 | 6.4 | 0.03 | 0.10 | 0.03 | 99 | 1014.3 |
| 20260906122801 | 18 | 246 | 3.2 | 3.2 | 0.03 | 0.10 | 0.03 | 99 | 1014.3 |
| 20260906122305 | 18 | 23 | 0.0 | 3.2 | 0.03 | 0.10 | 0.03 | 99 | 1014.3 |
| 20260906121801 | 17 | 66 | 0.0 | 3.2 | 0.03 | 0.10 | 0.03 | 99 | 1014.3 |
| 20260906121301 | 18 | 255 | 1.6 | 3.2 | 0.03 | 0.10 | 0.03 | 99 | 1014.3 |
| 20260906120801 | 18 | 102 | 0.0 | 3.2 | 0.03 | 0.10 | 0.03 | 99 | 1014.3 |
| 20260906120301 | 18 | 270 | 0.0 | 4.8 | 0.00 | 0.08 | 0.00 | 99 | 1013.5 |
| 20260906115802 | 17 | 311 | 3.2 | 4.8 | 0.00 | 0.08 | 0.00 | 99 | 1013.5 |
| 20260906115301 | 18 | 291 | 1.6 | 4.8 | 0.00 | 0.08 | 0.00 | 99 | 1014.3 |
| 20260906114803 | 18 | 0 | 0.0 | 3.2 | 0.00 | 0.08 | 0.00 | 99 | 1013.9 |
| 20260906114301 | 17 | 0 | 0.0 | 3.2 | 0.00 | 0.08 | 0.00 | 99 | 1013.9 |
| 20260906113801 | 17 | 0 | 0.0 | 4.8 | 0.00 | 0.08 | 0.00 | 99 | 1014.3 |
| 20260906112801 | 17 | 311 | 3.2 | 3.2 | 0.00 | 0.08 | 0.00 | 99 | 1014.3 |
| 20260906112306 | 17 | 270 | 0.0 | 6.4 | 0.00 | 0.08 | 0.00 | 99 | 1014.3 |
| 20260906111302 | 18 | 81 | 0.0 | 4.8 | 0.00 | 0.08 | 0.00 | 99 | 1014.3 |
| 20260906110801 | 17 | 0 | 0.0 | 4.8 | 0.00 | 0.08 | 0.00 | 99 | 1014.3 |
| 20260906110301 | 17 | 71 | 0.0 | 4.8 | 0.00 | 0.08 | 0.00 | 99 | 1014.3 |
| 20260906105800 | 17 | 270 | 0.0 | 3.2 | 0.00 | 0.08 | 0.00 | 99 | 1013.9 |
| 20260906104759 | 17 | 306 | 1.6 | 9.7 | 0.00 | 0.08 | 0.00 | 99 | 1013.2 |
| 20260906104258 | 17 | 300 | 1.6 | 8.0 | 0.00 | 0.08 | 0.00 | 99 | 1013.5 |
| 20260906103758 | 18 | 279 | 0.0 | 4.8 | 0.00 | 0.08 | 0.00 | 99 | 1014.3 |
| 20260906103258 | 17 | 5 | 0.0 | 4.8 | 0.00 | 0.08 | 0.00 | 99 | 1014.3 |
| 20260906102759 | 17 | 345 | 0.0 | 4.8 | 0.00 | 0.08 | 0.00 | 99 | 1014.3 |
| 20260906102257 | 17 | 354 | 1.6 | 4.8 | 0.00 | 0.08 | 0.00 | 99 | 1013.9 |
| 20260906101757 | 17 | 90 | 0.0 | 3.2 | 0.00 | 0.08 | 0.00 | 99 | 1014.3 |
| 20260906100756 | 17 | 133 | 4.8 | 8.0 | 0.00 | 0.08 | 0.00 | 99 | 1012.8 |
| 20260906100258 | 17 | 292 | 3.2 | 8.0 | 0.00 | 0.08 | 0.00 | 99 | 1012.8 |
| 20260906095756 | 17 | 337 | 1.6 | 3.2 | 0.00 | 0.08 | 0.00 | 99 | 1013.5 |
| 20260906094256 | 17 | 301 | 0.0 | 3.2 | 0.00 | 0.08 | 0.00 | 99 | 1013.5 |
| 20260906093754 | 17 | 254 | 0.0 | 9.7 | 0.00 | 0.08 | 0.00 | 99 | 1013.2 |
| 20260906093256 | 17 | 289 | 3.2 | 9.7 | 0.00 | 0.08 | 0.00 | 99 | 1013.2 |
| 20260906092754 | 17 | 300 | 1.6 | 9.7 | 0.00 | 0.08 | 0.00 | 99 | 1012.8 |
| 20260906091754 | 17 | 291 | 0.0 | 3.2 | 0.00 | 0.08 | 0.00 | 99 | 1012.8 |
| 20260906091254 | 17 | 270 | 0.0 | 6.4 | 0.00 | 0.08 | 0.00 | 99 | 1013.2 |
| 20260906090753 | 17 | 81 | 0.0 | 6.4 | 0.00 | 0.08 | 0.00 | 99 | 1013.2 |
| 20260906090253 | 17 | 258 | 3.2 | 4.8 | 0.00 | 0.08 | 0.00 | 99 | 1012.8 |
| 20260906085753 | 17 | 11 | 0.0 | 9.7 | 0.00 | 0.08 | 0.00 | 99 | 1012.8 |
| 20260906085252 | 17 | 306 | 1.6 | 9.7 | 0.00 | 0.08 | 0.00 | 99 | 1012.5 |
| 20260906084253 | 17 | 270 | 0.0 | 11.3 | 0.00 | 0.08 | 0.00 | 99 | 1012.8 |
| 20260906083751 | 17 | 290 | 3.2 | 4.8 | 0.00 | 0.08 | 0.00 | 99 | 1012.8 |
| 20260906083253 | 17 | 294 | 1.6 | 6.4 | 0.00 | 0.08 | 0.00 | 99 | 1012.8 |
| 20260906082750 | 17 | 285 | 3.2 | 9.7 | 0.00 | 0.08 | 0.00 | 99 | 1013.2 |
| 20260906081750 | 17 | 270 | 3.2 | 8.0 | 0.00 | 0.08 | 0.00 | 99 | 1013.2 |
| 20260906081251 | 17 | 320 | 3.2 | 6.4 | 0.00 | 0.08 | 0.00 | 99 | 1013.2 |
| 20260906080249 | 17 | 348 | 1.6 | 3.2 | 0.00 | 0.08 | 0.00 | 99 | 1013.5 |
| 20260906075749 | 17 | 289 | 0.0 | 4.8 | 0.00 | 0.08 | 0.00 | 99 | 1013.5 |
| 20260906075248 | 17 | 0 | 0.0 | 4.8 | 0.00 | 0.08 | 0.00 | 99 | 1013.9 |
| 20260906074749 | 17 | 279 | 0.0 | 3.2 | 0.00 | 0.08 | 0.00 | 99 | 1013.5 |
| 20260906074248 | 17 | 270 | 0.0 | 3.2 | 0.00 | 0.08 | 0.00 | 99 | 1013.5 |
| 20260906073748 | 17 | 289 | 1.6 | 3.2 | 0.00 | 0.08 | 0.00 | 99 | 1013.5 |
| 20260906072747 | 17 | 90 | 1.6 | 3.2 | 0.00 | 0.08 | 0.00 | 99 | 1013.5 |
| 20260906072248 | 17 | 0 | 0.0 | 4.8 | 0.00 | 0.08 | 0.00 | 99 | 1013.5 |
| 20260906071747 | 17 | 279 | 0.0 | 4.8 | 0.00 | 0.08 | 0.00 | 99 | 1013.5 |
| 20260906071246 | 17 | 300 | 0.0 | 1.6 | 0.00 | 0.08 | 0.00 | 99 | 1013.5 |
| 20260906070746 | 17 | 285 | 0.0 | 8.0 | 0.00 | 0.08 | 0.00 | 99 | 1013.5 |
| 20260906070247 | 17 | 270 | 0.0 | 8.0 | 0.00 | 0.08 | 0.00 | 99 | 1013.9 |
| 20260906065745 | 17 | 289 | 1.6 | 4.8 | 0.00 | 0.08 | 0.00 | 99 | 1013.9 |
| 20260906065246 | 17 | 289 | 0.0 | 3.2 | 0.00 | 0.08 | 0.00 | 99 | 1013.5 |
| 20260906064745 | 17 | 0 | 0.0 | 3.2 | 0.00 | 0.08 | 0.00 | 99 | 1013.9 |
| 20260906064244 | 17 | 350 | 0.0 | 3.2 | 0.00 | 0.08 | 0.00 | 99 | 1013.9 |
| 20260906063744 | 18 | 282 | 0.0 | 3.2 | 0.00 | 0.08 | 0.00 | 99 | 1013.9 |
| 20260906063244 | 17 | 340 | 0.0 | 3.2 | 0.00 | 0.08 | 0.00 | 99 | 1013.9 |
| 20260906062745 | 17 | 345 | 0.0 | 3.2 | 0.00 | 0.08 | 0.00 | 99 | 1014.3 |
| 20260906062243 | 18 | 270 | 0.0 | 3.2 | 0.00 | 0.08 | 0.00 | 99 | 1013.9 |
| 20260906061743 | 18 | 285 | 0.0 | 8.0 | 0.00 | 0.08 | 0.00 | 99 | 1013.9 |
| 20260906060742 | 18 | 291 | 1.6 | 6.4 | 0.00 | 0.08 | 0.00 | 99 | 1013.9 |
| 20260906060242 | 18 | 276 | 0.0 | 4.8 | 0.00 | 0.08 | 0.00 | 99 | 1013.9 |
| 20260906055742 | 18 | 263 | 0.0 | 4.8 | 0.00 | 0.08 | 0.00 | 99 | 1013.9 |
| 20260906055241 | 18 | 254 | 1.6 | 4.8 | 0.00 | 0.08 | 0.00 | 99 | 1014.3 |
| 20260906054241 | 18 | 0 | 1.6 | 11.3 | 0.00 | 0.08 | 0.00 | 99 | 1013.9 |
| 20260906053742 | 18 | 286 | 3.2 | 11.3 | 0.00 | 0.08 | 0.00 | 99 | 1013.9 |
| 20260906053240 | 18 | 303 | 3.2 | 4.8 | 0.00 | 0.08 | 0.00 | 99 | 1013.5 |
| 20260906052741 | 18 | 354 | 0.0 | 4.8 | 0.00 | 0.08 | 0.00 | 99 | 1013.9 |
| 20260906052239 | 18 | 258 | 0.0 | 4.8 | 0.00 | 0.08 | 0.00 | 99 | 1013.9 |
| 20260906051741 | 18 | 352 | 3.2 | 4.8 | 0.00 | 0.08 | 0.00 | 99 | 1013.9 |
| 20260906051239 | 18 | 270 | 0.0 | 4.8 | 0.00 | 0.08 | 0.00 | 99 | 1013.9 |
| 20260906050740 | 18 | 297 | 0.0 | 4.8 | 0.00 | 0.08 | 0.00 | 99 | 1014.3 |
| 20260906050238 | 18 | 261 | 0.0 | 4.8 | 0.00 | 0.08 | 0.00 | 99 | 1014.3 |
| 20260906045738 | 18 | 278 | 1.6 | 3.2 | 0.00 | 0.08 | 0.08 | 99 | 1013.9 |
| 20260906044737 | 18 | 287 | 0.0 | 4.8 | 0.00 | 0.08 | 0.08 | 99 | 1013.5 |
| 20260906044238 | 18 | 297 | 1.6 | 4.8 | 0.00 | 0.08 | 0.08 | 99 | 1014.3 |
| 20260906043736 | 18 | 325 | 0.0 | 1.6 | 0.00 | 0.08 | 0.08 | 99 | 1014.3 |
| 20260906042736 | 18 | 286 | 0.0 | 4.8 | 0.00 | 0.08 | 0.08 | 99 | 1014.3 |
| 20260906042237 | 17 | 278 | 0.0 | 3.2 | 0.00 | 0.08 | 0.08 | 99 | 1014.3 |
| 20260906041735 | 18 | 294 | 0.0 | 3.2 | 0.00 | 0.08 | 0.08 | 99 | 1014.3 |
| 20260906041237 | 17 | 292 | 0.0 | 3.2 | 0.00 | 0.08 | 0.08 | 99 | 1014.3 |
| 20260906040735 | 17 | 270 | 0.0 | 4.8 | 0.00 | 0.08 | 0.08 | 99 | 1014.3 |
| 20260906040236 | 18 | 270 | 0.0 | 4.8 | 0.00 | 0.08 | 0.08 | 99 | 1014.3 |
| 20260906035234 | 17 | 265 | 0.0 | 3.2 | 0.00 | 0.08 | 0.08 | 99 | 1014.3 |
| 20260906034733 | 17 | 355 | 0.0 | 3.2 | 0.00 | 0.08 | 0.08 | 99 | 1013.9 |
| 20260906033733 | 17 | 302 | 0.0 | 3.2 | 0.00 | 0.08 | 0.08 | 99 | 1014.3 |
| 20260906033234 | 17 | 346 | 0.0 | 1.6 | 0.00 | 0.08 | 0.08 | 99 | 1013.9 |
| 20260906032733 | 17 | 300 | 0.0 | 1.6 | 0.00 | 0.08 | 0.08 | 99 | 1013.9 |
| 20260906032232 | 17 | 294 | 0.0 | 1.6 | 0.00 | 0.08 | 0.08 | 99 | 1014.3 |
| 20260906031732 | 17 | 261 | 0.0 | 3.2 | 0.00 | 0.08 | 0.08 | 99 | 1013.9 |
| 20260906031233 | 17 | 279 | 0.0 | 3.2 | 0.00 | 0.08 | 0.08 | 99 | 1013.9 |
| 20260906030731 | 17 | 270 | 0.0 | 3.2 | 0.00 | 0.08 | 0.08 | 99 | 1013.9 |
| 20260906030232 | 17 | 279 | 0.0 | 1.6 | 0.00 | 0.08 | 0.08 | 99 | 1013.5 |
| 20260906025731 | 17 | 354 | 0.0 | 1.6 | 0.00 | 0.08 | 0.08 | 99 | 1013.9 |
| 20260906025230 | 17 | 261 | 0.0 | 0.0 | 0.00 | 0.08 | 0.08 | 99 | 1013.5 |
| 20260906024730 | 17 | 294 | 0.0 | 3.2 | 0.00 | 0.08 | 0.08 | 99 | 1013.9 |
| 20260906024231 | 17 | 294 | 0.0 | 3.2 | 0.00 | 0.08 | 0.08 | 99 | 1013.9 |
| 20260906023729 | 18 | 264 | 0.0 | 3.2 | 0.00 | 0.08 | 0.08 | 99 | 1013.9 |
| 20260906023229 | 18 | 278 | 0.0 | 3.2 | 0.00 | 0.08 | 0.08 | 99 | 1013.9 |
| 20260906022729 | 18 | 354 | 0.0 | 3.2 | 0.00 | 0.08 | 0.08 | 99 | 1013.5 |
| 20260906021730 | 18 | 279 | 0.0 | 4.8 | 0.00 | 0.08 | 0.08 | 99 | 1013.5 |
| 20260906021228 | 18 | 259 | 0.0 | 3.2 | 0.00 | 0.08 | 0.08 | 99 | 1013.9 |
| 20260906020729 | 18 | 279 | 0.0 | 3.2 | 0.00 | 0.08 | 0.08 | 99 | 1013.5 |
| 20260906020227 | 18 | 287 | 0.0 | 3.2 | 0.00 | 0.08 | 0.08 | 99 | 1014.3 |
| 20260906015728 | 18 | 262 | 0.0 | 3.2 | 0.00 | 0.08 | 0.08 | 99 | 1013.5 |
| 20260906014728 | 18 | 255 | 0.0 | 3.2 | 0.00 | 0.08 | 0.08 | 98 | 1013.5 |
| 20260906014226 | 18 | 282 | 0.0 | 3.2 | 0.00 | 0.08 | 0.08 | 97 | 1013.5 |
| 20260906013728 | 18 | 263 | 0.0 | 3.2 | 0.00 | 0.08 | 0.08 | 97 | 1013.5 |
| 20260906013227 | 18 | 251 | 0.0 | 3.2 | 0.00 | 0.08 | 0.08 | 97 | 1013.5 |
| 20260906012202 | 18 | 286 | 1.6 | 4.8 | 0.00 | 0.08 | 0.08 | 97 | 1013.2 |
| 20260906011702 | 18 | 0 | 0.0 | 1.6 | 0.00 | 0.08 | 0.08 | 96 | 1013.5 |
| 20260906011201 | 18 | 270 | 0.0 | 3.2 | 0.00 | 0.08 | 0.08 | 96 | 1013.2 |
| 20260906005703 | 19 | 294 | 0.0 | 4.8 | 0.00 | 0.08 | 0.08 | 95 | 1012.8 |
| 20260906005201 | 19 | 341 | 0.0 | 8.0 | 0.00 | 0.08 | 0.08 | 94 | 1012.5 |
| 20260906004702 | 19 | 35 | 0.0 | 8.0 | 0.00 | 0.08 | 0.08 | 93 | 1012.1 |
| 20260906004201 | 19 | 239 | 3.2 | 8.0 | 0.00 | 0.08 | 0.08 | 94 | 1012.1 |
| 20260906003200 | 20 | 257 | 1.6 | 9.7 | 0.00 | 0.08 | 0.08 | 93 | 1011.8 |
| 20260906002701 | 20 | 341 | 3.2 | 8.0 | 0.00 | 0.08 | 0.08 | 92 | 1011.8 |
| 20260906002201 | 20 | 248 | 3.2 | 11.3 | 0.00 | 0.08 | 0.08 | 92 | 1012.1 |
| 20260906001703 | 20 | 263 | 1.6 | 11.3 | 0.00 | 0.08 | 0.08 | 91 | 1012.1 |
| 20260906001201 | 20 | 245 | 3.2 | 9.7 | 0.00 | 0.08 | 0.08 | 91 | 1012.1 |
| 20260906000702 | 20 | 264 | 0.0 | 8.0 | 0.00 | 0.08 | 0.08 | 91 | 1012.1 |
| 20260906000201 | 20 | 289 | 1.6 | 8.0 | 0.00 | 0.08 | 0.08 | 90 | 1011.8 |
| 20260905235703 | 21 | 312 | 3.2 | 8.0 | 0.00 | 0.08 | 0.08 | 89 | 1011.8 |
| 20260905235202 | 21 | 257 | 1.6 | 8.0 | 0.00 | 0.08 | 0.08 | 88 | 1012.1 |
| 20260905234703 | 21 | 270 | 3.2 | 8.0 | 0.00 | 0.08 | 0.08 | 87 | 1012.1 |
| 20260905234201 | 21 | 260 | 3.2 | 8.0 | 0.00 | 0.08 | 0.08 | 86 | 1011.8 |
| 20260905233702 | 21 | 350 | 4.8 | 9.7 | 0.00 | 0.08 | 0.08 | 87 | 1011.8 |
| 20260905233200 | 21 | 285 | 3.2 | 9.7 | 0.00 | 0.08 | 0.08 | 88 | 1011.5 |
| 20260905232703 | 20 | 255 | 1.6 | 11.3 | 0.00 | 0.08 | 0.08 | 88 | 1011.8 |
| 20260905232201 | 20 | 304 | 3.2 | 11.3 | 0.00 | 0.08 | 0.08 | 88 | 1011.8 |
| 20260905231702 | 21 | 304 | 3.2 | 9.7 | 0.00 | 0.08 | 0.08 | 88 | 1012.1 |
| 20260905231201 | 21 | 295 | 3.2 | 8.0 | 0.00 | 0.08 | 0.08 | 87 | 1012.1 |
| 20260905225703 | 21 | 241 | 4.8 | 9.7 | 0.00 | 0.08 | 0.08 | 86 | 1012.1 |
| 20260905224704 | 21 | 266 | 3.2 | 11.3 | 0.00 | 0.08 | 0.08 | 86 | 1012.1 |
| 20260905224201 | 22 | 356 | 3.2 | 9.7 | 0.00 | 0.08 | 0.08 | 85 | 1011.8 |
| 20260905223201 | 22 | 239 | 0.0 | 9.7 | 0.00 | 0.08 | 0.08 | 85 | 1011.8 |
| 20260905222202 | 22 | 233 | 3.2 | 9.7 | 0.00 | 0.08 | 0.08 | 84 | 1011.8 |
| 20260905221701 | 22 | 340 | 6.4 | 12.9 | 0.00 | 0.08 | 0.08 | 86 | 1011.8 |
| 20260905221202 | 21 | 284 | 8.0 | 12.9 | 0.00 | 0.08 | 0.08 | 87 | 1011.8 |
| 20260905220701 | 21 | 324 | 3.2 | 12.9 | 0.00 | 0.08 | 0.08 | 87 | 1011.8 |
| 20260905220202 | 21 | 270 | 3.2 | 9.7 | 0.00 | 0.08 | 0.08 | 86 | 1011.5 |
| 20260905214701 | 21 | 336 | 3.2 | 14.5 | 0.00 | 0.08 | 0.08 | 85 | 1011.5 |
| 20260905214200 | 22 | 254 | 4.8 | 9.7 | 0.00 | 0.08 | 0.08 | 84 | 1011.5 |
| 20260905213700 | 22 | 351 | 6.4 | 14.5 | 0.00 | 0.08 | 0.08 | 85 | 1011.5 |
| 20260905213203 | 22 | 304 | 3.2 | 14.5 | 0.00 | 0.08 | 0.08 | 84 | 1011.8 |
| 20260905212701 | 22 | 0 | 0.0 | 14.5 | 0.00 | 0.08 | 0.08 | 86 | 1011.8 |
| 20260905212203 | 22 | 296 | 14.5 | 14.5 | 0.00 | 0.08 | 0.08 | 86 | 1011.8 |
| 20260905211701 | 21 | 340 | 0.0 | 14.5 | 0.00 | 0.08 | 0.08 | 89 | 1011.8 |
| 20260905210203 | 21 | 312 | 3.2 | 11.3 | 0.00 | 0.08 | 0.08 | 91 | 1011.8 |
| 20260905205701 | 20 | 300 | 4.8 | 11.3 | 0.00 | 0.08 | 0.08 | 91 | 1012.1 |
| 20260905205203 | 21 | 283 | 3.2 | 14.5 | 0.03 | 0.08 | 0.08 | 90 | 1012.1 |
| 20260905204701 | 21 | 324 | 3.2 | 14.5 | 0.03 | 0.08 | 0.08 | 92 | 1012.1 |
| 20260905204203 | 21 | 344 | 0.0 | 11.3 | 0.03 | 0.08 | 0.08 | 94 | 1012.1 |
| 20260905203701 | 20 | 345 | 3.2 | 14.5 | 0.05 | 0.08 | 0.08 | 96 | 1012.1 |
| 20260905203203 | 19 | 292 | 3.2 | 14.5 | 0.08 | 0.08 | 0.08 | 97 | 1012.5 |
| 20260905202701 | 18 | 270 | 4.8 | 8.0 | 0.08 | 0.08 | 0.08 | 97 | 1012.1 |
| 20260905201700 | 18 | 263 | 1.6 | 9.7 | 0.08 | 0.08 | 0.08 | 99 | 1012.1 |